Ana Sayfa
METAR-TAF:

METAR-TAF

Havaalanları :

Burnet Municipal Airport (Kate Craddock Field)

Burnet, Teksas, Amerika Birleşik Devletleri

Enlem: 30-44-26N, Boylam: 098-14-07W, yükseklik: 392 m

Güncel hava durumu gözlemi

Rapor saat 05:53 UTC de 45 dakika önce yapıldı.
Rüzgar güneydan 9 kt ve 14 kt'a kadar ani rüzgarlar
Sıcaklık 28°C
Nem 66%
Basınç 1016 hPa
Görüş mesafesi: 16.1 km
Açık gökyüzü

METAR: KBMQ 220553Z AUTO 17009G14KT 10SM CLR 28/21 A3000 RMK AO2 SLP138 T02830211 10344 20278 403610233 53012

Saat: 01:38 (06:38 UTC)


TAF: eksik

4.000'den fazla havaalanı için hava durumu gözlemleri ve tahminleri (METAR ve TAF raporları).

Kullanılabilir istasyonlar harita üzerinde sarı ve kırmızı noktalarla gösterilir.

İstasyonun adını görmek için fareyi noktanın üzerinde gezdirin.

Sonrasında hava gözlem ve tahminlerini görmek için tıklayın.

Haritayı değiştirmek için: yaklaştırmak için siyah artı işaretli yeşil düğmeye ve uzaklaştırmak için de eksi işaretli düğmeye hızla tıklayın; bitişik haritalar için yeşil okları kullanın.


METAR-TAF: